Regional Weather Roundup
Issued by NWS

Home | Current Version | Previous Version | Graphics & Text | Print | Product List | Glossary On
Versions: 1 2 3 4 5 6 7 8 9 10 11 12 13 14 15 16 17 18 19 20 21 22 23 24 25 26 27 28 29 30 31 32 33 34 35 36 37 38 39 40 41 42 43 44 45 46 47 48 49 50
000
ASUS43 KFSD 101310
RWRSD

WEATHER ROUNDUP FOR SOUTH DAKOTA
NATIONAL WEATHER SERVICE SIOUX FALLS SD
700 AM CST SUN DEC 10 2017

NOTE: "FAIR" INDICATES FEW OR NO CLOUDS BELOW 12,000 FEET WITH NO
SIGNIFICANT WEATHER AND/OR OBSTRUCTIONS TO VISIBILITY.


SDZ001>005-009-010-012>017-101400-
NORTHWEST AND NORTH CENTRAL SOUTH DAKOTA

CITY           SKY/WX    TMP DP  RH WIND       PRES   REMARKS
BUFFALO          N/A     36  16  44 W22       30.11S
FAITH            N/A     35  17  47 W14       30.13R WCI  26
MOBRIDGE       CLEAR     37  22  54 NW12      30.05R
$$

SDZ012>016-024>037-041>051-057-063-072>074-101400-
SOUTHWEST AND SOUTH CENTRAL SOUTH DAKOTA

CITY           SKY/WX    TMP DP  RH WIND       PRES   REMARKS
RAPID CTY ARPT CLEAR     47   5  18 NW15      30.21R
PIERRE         CLEAR     38  20  48 W9        30.11R
CUSTER         CLEAR     43  -4  14 NW7       30.26S
ELLSWORTH AFB  CLEAR     47   6  18 NW17      30.20R
PHILIP         CLEAR     46  13  26 NW22G28   30.15S
PINE RIDGE     CLOUDY    32  15  49 SW8       30.27R WCI  25
SPEARFISH      FAIR      43   9  24 W16       30.26S
WINNER         FAIR      42  18  37 W15       30.13R
$$

SDZ004>011-016>023-039-040-101400-
NORTHEAST SOUTH DAKOTA

CITY           SKY/WX    TMP DP  RH WIND       PRES   REMARKS
ABERDEEN       CLOUDY    30  25  81 NW8       30.04R WCI  22
WATERTOWN      CLOUDY    29  25  85 NW10      29.99R WCI  20
BROOKINGS      CLOUDY    28  24  85 NW9       30.00R WCI  19
SISSETON         N/A     32  25  75 NW12      29.99R WCI  23
$$

SDZ017-020-022-023-036>040-048>070-101400-
SOUTHEAST SOUTH DAKOTA

CITY           SKY/WX    TMP DP  RH WIND       PRES   REMARKS
SIOUX FALLS    CLOUDY    31  26  82 NW7       30.02R WCI  24
HURON          CLOUDY    25  22  88 W8        30.05R WCI  16
CHAMBERLAIN    CLEAR     40  22  49 W14       30.09R
MITCHELL       CLEAR     36  26  67 W13       30.07R
YANKTON        CLEAR     38  24  57 W13       30.06R
$$

ABBREVIATIONS USED IN REMARKS
   TC - TEMPERATURE IN CELSIUS
  WCI - WIND CHILL INDEX
   HX - HEAT INDEX
  VSB - VISIBILITY





USA.gov is the U.S. government's official web portal to all federal, state and local government web resources and services.